Location: Unspecified
(33.6682°S, 0.0000°E)
Time: 23:19:51
(UTC+00:00)

Vanguard 1 - Pass Details

Date: 30 June 2019
Orbit: 653 x 3830 km, 34.3° (Epoch: 12 October)

Event Time Altitude Azimuth Distance (km) Brightness Sun altitude
Rises 20:36:28 0° 263° (W) 5,552 14.7 -43.7°
Reaches altitude 10° 20:40:24 10° 274° (W) 4,980 14.2 -44.5°
Maximum altitude 20:52:24 28° 325° (NW) 4,709 13.6 -47.0°
Drops below altitude 10° 21:09:00 10° 14° (NNE) 6,849 14.2 -50.5°
Sets 21:16:03 0° 24° (NNE) 7,955 14.5 -51.9°
